| time (UTC) | temp F | wind direction | speed MPH | gust MPH | rain 1hr in | rain 24hr in | rain mn in | humidity % | barometer mb |
| 20260504220529 | 36 | 323 | 5.0 | 9.0 | 0.00 | 0.00 | 0.00 | 76 | 1006.7 |
| 20260504220026 | 36 | 335 | 6.0 | 9.0 | 0.00 | 0.00 | 0.00 | 76 | 1006.6 |
| 20260504215522 | 36 | 312 | 4.0 | 7.0 | 0.00 | 0.00 | 0.00 | 74 | 1006.6 |
| 20260504215020 | 37 | 252 | 3.0 | 7.0 | 0.00 | 0.00 | 0.00 | 73 | 1006.4 |
| 20260504214516 | 37 | 320 | 3.0 | 7.0 | 0.00 | 0.00 | 0.00 | 73 | 1006.4 |
| 20260504214012 | 37 | 281 | 3.0 | 8.0 | 0.00 | 0.00 | 0.00 | 71 | 1006.2 |
| 20260504213509 | 38 | 208 | 4.0 | 6.0 | 0.00 | 0.00 | 0.00 | 68 | 1006.1 |
| 20260504213007 | 38 | 344 | 4.0 | 8.0 | 0.00 | 0.00 | 0.00 | 69 | 1006.1 |
| 20260504212502 | 38 | 263 | 3.0 | 5.0 | 0.00 | 0.00 | 0.00 | 70 | 1006.2 |
| 20260504212000 | 38 | 278 | 3.0 | 6.0 | 0.00 | 0.00 | 0.00 | 70 | 1006.1 |
| 20260504211456 | 38 | 234 | 4.0 | 7.0 | 0.00 | 0.00 | 0.00 | 66 | 1006.2 |
| 20260504210954 | 38 | 323 | 5.0 | 8.0 | 0.00 | 0.00 | 0.00 | 64 | 1005.9 |
| 20260504210450 | 39 | 40 | 2.0 | 6.0 | 0.00 | 0.00 | 0.00 | 64 | 1005.9 |
| 20260504205947 | 38 | 226 | 1.0 | 8.0 | 0.00 | 0.00 | 0.00 | 63 | 1005.9 |
| 20260504205444 | 39 | 350 | 4.0 | 7.0 | 0.00 | 0.00 | 0.00 | 63 | 1006.2 |
| 20260504204943 | 38 | 277 | 7.0 | 9.0 | 0.00 | 0.00 | 0.00 | 63 | 1005.7 |
| 20260504204441 | 38 | 324 | 6.0 | 14.0 | 0.00 | 0.00 | 0.00 | 64 | 1005.8 |
| 20260504203940 | 38 | 307 | 2.0 | 9.0 | 0.00 | 0.00 | 0.00 | 64 | 1005.8 |
| 20260504203437 | 38 | 311 | 8.0 | 9.0 | 0.00 | 0.00 | 0.00 | 64 | 1005.6 |
| 20260504202933 | 38 | 325 | 4.0 | 9.0 | 0.00 | 0.00 | 0.00 | 65 | 1005.7 |
| 20260504202430 | 39 | 322 | 6.0 | 10.0 | 0.00 | 0.00 | 0.00 | 63 | 1005.5 |
| 20260504201926 | 39 | 122 | 5.0 | 14.0 | 0.00 | 0.00 | 0.00 | 62 | 1005.6 |
| 20260504201424 | 39 | 66 | 4.0 | 9.0 | 0.00 | 0.00 | 0.00 | 62 | 1005.4 |
| 20260504200921 | 39 | 285 | 5.0 | 14.0 | 0.00 | 0.00 | 0.00 | 67 | 1005.4 |
| 20260504200418 | 38 | 295 | 5.0 | 8.0 | 0.00 | 0.00 | 0.00 | 70 | 1005.1 |
| 20260504195915 | 39 | 279 | 9.0 | 11.0 | 0.00 | 0.00 | 0.00 | 71 | 1005.4 |
| 20260504195410 | 39 | 337 | 6.0 | 13.0 | 0.00 | 0.00 | 0.00 | 72 | 1005.1 |
| 20260504194907 | 39 | 322 | 7.0 | 10.0 | 0.00 | 0.00 | 0.00 | 72 | 1005.1 |
| 20260504194403 | 38 | 343 | 7.0 | 14.0 | 0.00 | 0.00 | 0.00 | 72 | 1005.0 |
| 20260504193859 | 38 | 197 | 4.0 | 11.0 | 0.00 | 0.00 | 0.00 | 73 | 1004.9 |
| 20260504193356 | 39 | 58 | 4.0 | 10.0 | 0.00 | 0.00 | 0.00 | 74 | 1004.9 |
| 20260504192855 | 39 | 34 | 3.0 | 8.0 | 0.00 | 0.00 | 0.00 | 70 | 1004.7 |
| 20260504192352 | 39 | 333 | 4.0 | 8.0 | 0.00 | 0.00 | 0.00 | 70 | 1004.6 |
| 20260504191850 | 39 | 55 | 7.0 | 10.0 | 0.00 | 0.00 | 0.00 | 69 | 1004.5 |
| 20260504191348 | 39 | 306 | 6.0 | 9.0 | 0.00 | 0.00 | 0.00 | 69 | 1004.4 |
| 20260504190843 | 39 | 220 | 4.0 | 11.0 | 0.00 | 0.00 | 0.00 | 70 | 1004.1 |
| 20260504190339 | 39 | 245 | 4.0 | 10.0 | 0.00 | 0.00 | 0.00 | 67 | 1004.3 |
| 20260504185836 | 40 | 19 | 7.0 | 9.0 | 0.00 | 0.00 | 0.00 | 67 | 1004.4 |
| 20260504185333 | 40 | 28 | 5.0 | 13.0 | 0.00 | 0.00 | 0.00 | 67 | 1004.0 |
| 20260504184829 | 40 | 343 | 7.0 | 11.0 | 0.00 | 0.00 | 0.00 | 67 | 1004.1 |
| 20260504184325 | 40 | 27 | 5.0 | 11.0 | 0.00 | 0.00 | 0.00 | 69 | 1003.8 |
| 20260504183821 | 40 | 4 | 7.0 | 10.0 | 0.00 | 0.00 | 0.00 | 68 | 1003.8 |
| 20260504183319 | 41 | 55 | 4.0 | 10.0 | 0.00 | 0.00 | 0.00 | 68 | 1003.9 |
| 20260504182817 | 40 | 250 | 1.0 | 7.0 | 0.00 | 0.00 | 0.00 | 70 | 1003.6 |
| 20260504182314 | 40 | 248 | 3.0 | 13.0 | 0.00 | 0.00 | 0.00 | 72 | 1003.4 |
| 20260504181811 | 41 | 312 | 8.0 | 13.0 | 0.00 | 0.00 | 0.00 | 69 | 1003.5 |
| 20260504181308 | 40 | 326 | 5.0 | 7.0 | 0.00 | 0.00 | 0.00 | 70 | 1003.5 |
| 20260504180807 | 40 | 333 | 4.0 | 7.0 | 0.00 | 0.00 | 0.00 | 69 | 1003.2 |
| 20260504180305 | 40 | 62 | 7.0 | 11.0 | 0.00 | 0.00 | 0.00 | 70 | 1003.6 |
| 20260504175803 | 40 | 281 | 6.0 | 10.0 | 0.00 | 0.00 | 0.00 | 71 | 1003.3 |
| 20260504175259 | 39 | 103 | 4.0 | 7.0 | 0.00 | 0.00 | 0.00 | 75 | 1003.1 |
| 20260504174757 | 39 | 26 | 4.0 | 10.0 | 0.00 | 0.00 | 0.00 | 79 | 1003.1 |
| 20260504174255 | 39 | 227 | 3.0 | 13.0 | 0.00 | 0.00 | 0.00 | 76 | 1003.3 |
| 20260504173751 | 39 | 356 | 6.0 | 11.0 | 0.00 | 0.00 | 0.00 | 71 | 1002.8 |
| 20260504173248 | 40 | 286 | 6.0 | 8.0 | 0.00 | 0.00 | 0.00 | 67 | 1002.8 |
| 20260504172745 | 40 | 240 | 3.0 | 9.0 | 0.00 | 0.00 | 0.00 | 67 | 1002.4 |
| 20260504172241 | 40 | 333 | 3.0 | 10.0 | 0.00 | 0.00 | 0.00 | 67 | 1002.5 |
| 20260504171737 | 40 | 218 | 4.0 | 10.0 | 0.00 | 0.00 | 0.00 | 68 | 1002.4 |
| 20260504171235 | 39 | 337 | 3.0 | 7.0 | 0.00 | 0.00 | 0.00 | 69 | 1002.4 |
| 20260504170732 | 40 | 266 | 6.0 | 10.0 | 0.00 | 0.00 | 0.00 | 67 | 1002.7 |
| 20260504170229 | 40 | 301 | 6.0 | 8.0 | 0.00 | 0.00 | 0.00 | 66 | 1002.4 |
| 20260504160147 | 39 | 319 | 6.0 | 11.0 | 0.00 | 0.00 | 0.00 | 69 | 1001.7 |
| 20260504151115 | 38 | 246 | 6.0 | 13.0 | 0.00 | 0.00 | 0.00 | 72 | 1001.2 |
| 20260504150613 | 39 | 268 | 4.0 | 15.0 | 0.00 | 0.00 | 0.00 | 72 | 1001.2 |
| 20260504150109 | 39 | 331 | 7.0 | 16.0 | 0.00 | 0.00 | 0.00 | 71 | 1001.3 |
| 20260504141038 | 38 | 317 | 7.0 | 13.0 | 0.00 | 0.00 | 0.00 | 74 | 1000.6 |
| 20260504140534 | 38 | 311 | 3.0 | 13.0 | 0.00 | 0.00 | 0.00 | 76 | 1000.6 |
| 20260504130459 | 36 | 206 | 3.0 | 8.0 | 0.00 | 0.00 | 0.00 | 82 | 999.8 |
| 20260504110346 | 36 | 147 | 4.0 | 9.0 | 0.00 | 0.00 | 0.00 | 86 | 997.8 |
| 20260504100303 | 37 | 289 | 4.0 | 14.0 | 0.00 | 0.00 | 0.00 | 88 | 997.0 |
| 20260504081657 | 39 | 9 | 4.0 | 8.0 | 0.00 | 0.00 | 0.00 | 85 | 995.2 |
| 20260504081153 | 40 | 216 | 5.0 | 10.0 | 0.00 | 0.00 | 0.00 | 85 | 995.2 |
| 20260504080649 | 40 | 317 | 4.0 | 11.0 | 0.00 | 0.00 | 0.00 | 84 | 995.1 |
| 20260504080146 | 40 | 275 | 5.0 | 13.0 | 0.00 | 0.00 | 0.00 | 83 | 995.0 |
| 20260504070114 | 43 | 48 | 3.0 | 10.0 | 0.00 | 0.00 | 0.00 | 80 | 994.1 |
| 20260504050503 | 46 | 216 | 0.0 | 3.0 | 0.00 | 0.00 | 0.00 | 91 | 993.5 |
| 20260504045959 | 46 | 219 | 0.0 | 0.0 | 0.00 | 0.05 | 0.05 | 90 | 993.6 |
| 20260504045455 | 46 | 212 | 0.0 | 1.0 | 0.00 | 0.05 | 0.05 | 90 | 993.9 |
| 20260504044951 | 46 | 223 | 0.0 | 2.0 | 0.00 | 0.05 | 0.05 | 90 | 993.7 |
| 20260504044449 | 46 | 220 | 0.0 | 3.0 | 0.00 | 0.05 | 0.05 | 90 | 993.9 |
| 20260504043946 | 47 | 224 | 3.0 | 5.0 | 0.00 | 0.05 | 0.05 | 90 | 994.1 |
| 20260504043443 | 47 | 223 | 2.0 | 2.0 | 0.00 | 0.05 | 0.05 | 89 | 994.1 |
| 20260504042941 | 47 | 271 | 1.0 | 2.0 | 0.00 | 0.05 | 0.05 | 89 | 994.4 |
| 20260504042437 | 47 | 217 | 1.0 | 2.0 | 0.00 | 0.05 | 0.05 | 88 | 994.4 |
| 20260504041934 | 47 | 228 | 1.0 | 7.0 | 0.00 | 0.05 | 0.05 | 88 | 994.8 |
| 20260504041430 | 47 | 229 | 2.0 | 3.0 | 0.00 | 0.05 | 0.05 | 88 | 994.5 |
| 20260504040926 | 48 | 222 | 2.0 | 6.0 | 0.05 | 0.05 | 0.05 | 87 | 994.8 |
| 20260504040424 | 48 | 228 | 2.0 | 3.0 | 0.12 | 0.05 | 0.05 | 86 | 994.8 |
| 20260504035920 | 48 | 227 | 3.0 | 5.0 | 0.07 | 0.04 | 0.04 | 84 | 995.0 |
| 20260504035417 | 49 | 252 | 3.0 | 9.0 | 0.05 | 0.03 | 0.03 | 82 | 995.3 |
| 20260504034914 | 49 | 307 | 5.0 | 10.0 | 0.05 | 0.03 | 0.03 | 81 | 995.7 |
| 20260504034412 | 50 | 241 | 7.0 | 11.0 | 0.07 | 0.02 | 0.02 | 78 | 995.2 |
| 20260504033908 | 51 | 330 | 5.0 | 7.0 | 0.07 | 0.02 | 0.02 | 76 | 995.3 |
| 20260504033406 | 51 | 251 | 7.0 | 14.0 | 0.07 | 0.01 | 0.01 | 73 | 995.4 |
| 20260504032903 | 52 | 245 | 5.0 | 14.0 | 0.07 | 0.01 | 0.01 | 70 | 995.2 |
| 20260504032400 | 54 | 330 | 7.0 | 10.0 | 0.00 | 0.00 | 0.00 | 64 | 995.2 |
| 20260504031856 | 55 | 327 | 6.0 | 8.0 | 0.00 | 0.00 | 0.00 | 62 | 995.0 |
| 20260504031353 | 56 | 16 | 4.0 | 9.0 | 0.00 | 0.00 | 0.00 | 58 | 995.0 |
| 20260504030850 | 57 | 283 | 4.0 | 8.0 | 0.00 | 0.00 | 0.00 | 55 | 995.0 |
| 20260504030347 | 57 | 26 | 9.0 | 14.0 | 0.00 | 0.00 | 0.00 | 53 | 995.0 |
| 20260504025843 | 59 | 270 | 6.0 | 8.0 | 0.00 | 0.00 | 0.00 | 52 | 994.9 |
| 20260504025340 | 59 | 353 | 5.0 | 8.0 | 0.00 | 0.00 | 0.00 | 50 | 994.8 |
| 20260504024837 | 59 | 295 | 6.0 | 9.0 | 0.00 | 0.00 | 0.00 | 49 | 994.3 |
| 20260504024333 | 59 | 359 | 4.0 | 9.0 | 0.00 | 0.00 | 0.00 | 46 | 994.5 |
| 20260504023830 | 59 | 324 | 5.0 | 10.0 | 0.00 | 0.00 | 0.00 | 47 | 994.2 |
| 20260504023327 | 60 | 100 | 6.0 | 10.0 | 0.00 | 0.00 | 0.00 | 46 | 994.0 |
| 20260504022823 | 60 | 20 | 5.0 | 7.0 | 0.00 | 0.00 | 0.00 | 46 | 994.0 |
| 20260504022320 | 60 | 76 | 4.0 | 10.0 | 0.00 | 0.00 | 0.00 | 45 | 994.0 |
| 20260504021816 | 61 | 252 | 5.0 | 11.0 | 0.00 | 0.00 | 0.00 | 44 | 993.9 |
| 20260504021314 | 61 | 183 | 4.0 | 13.0 | 0.00 | 0.00 | 0.00 | 42 | 994.2 |
| 20260504020811 | 61 | 340 | 5.0 | 14.0 | 0.00 | 0.00 | 0.00 | 41 | 994.1 |
| 20260504020308 | 62 | 282 | 6.0 | 14.0 | 0.00 | 0.00 | 0.00 | 41 | 994.0 |
| 20260504015803 | 63 | 301 | 8.0 | 13.0 | 0.00 | 0.00 | 0.00 | 38 | 993.6 |
| 20260504015300 | 63 | 301 | 3.0 | 8.0 | 0.00 | 0.00 | 0.00 | 36 | 993.4 |
| 20260504014755 | 64 | 298 | 4.0 | 9.0 | 0.00 | 0.00 | 0.00 | 36 | 993.4 |
| 20260504014252 | 64 | 305 | 2.0 | 7.0 | 0.00 | 0.00 | 0.00 | 36 | 993.5 |
| 20260504013750 | 64 | 296 | 5.0 | 9.0 | 0.00 | 0.00 | 0.00 | 35 | 993.5 |
| 20260504013248 | 64 | 313 | 6.0 | 10.0 | 0.00 | 0.00 | 0.00 | 36 | 993.4 |
| 20260504012743 | 64 | 242 | 6.0 | 8.0 | 0.00 | 0.00 | 0.00 | 35 | 993.4 |
| 20260504012242 | 65 | 297 | 3.0 | 6.0 | 0.00 | 0.00 | 0.00 | 35 | 993.5 |
| 20260504011738 | 65 | 17 | 3.0 | 8.0 | 0.00 | 0.00 | 0.00 | 35 | 993.5 |
| 20260504011235 | 66 | 330 | 4.0 | 10.0 | 0.00 | 0.00 | 0.00 | 35 | 993.6 |
| 20260504010731 | 66 | 237 | 5.0 | 7.0 | 0.00 | 0.00 | 0.00 | 35 | 993.6 |
| 20260504010227 | 66 | 282 | 5.0 | 8.0 | 0.00 | 0.00 | 0.00 | 36 | 993.6 |
| 20260504005724 | 66 | 216 | 5.0 | 11.0 | 0.00 | 0.00 | 0.00 | 36 | 994.4 |
| 20260504005221 | 66 | 315 | 5.0 | 7.0 | 0.00 | 0.00 | 0.00 | 35 | 994.1 |
| 20260504004719 | 67 | 203 | 4.0 | 7.0 | 0.00 | 0.00 | 0.00 | 37 | 994.3 |
| 20260504004215 | 67 | 238 | 3.0 | 9.0 | 0.00 | 0.00 | 0.00 | 36 | 994.2 |
| 20260504003712 | 67 | 4 | 5.0 | 11.0 | 0.00 | 0.00 | 0.00 | 37 | 994.0 |
| 20260504003209 | 68 | 331 | 5.0 | 8.0 | 0.00 | 0.00 | 0.00 | 40 | 994.3 |
| 20260504002706 | 68 | 251 | 2.0 | 7.0 | 0.00 | 0.00 | 0.00 | 43 | 994.0 |
| 20260504002203 | 68 | 342 | 2.0 | 7.0 | 0.00 | 0.00 | 0.00 | 43 | 994.1 |
| 20260504001701 | 68 | 199 | 4.0 | 6.0 | 0.00 | 0.00 | 0.00 | 43 | 994.0 |
| 20260504001157 | 68 | 308 | 2.0 | 8.0 | 0.00 | 0.00 | 0.00 | 42 | 994.2 |
| 20260504000654 | 68 | 280 | 3.0 | 6.0 | 0.00 | 0.00 | 0.00 | 43 | 994.3 |
| 20260504000151 | 68 | 308 | 2.0 | 7.0 | 0.00 | 0.00 | 0.00 | 43 | 994.3 |
| 20260503235649 | 68 | 266 | 2.0 | 10.0 | 0.00 | 0.00 | 0.00 | 43 | 994.4 |
| 20260503235145 | 68 | 347 | 5.0 | 13.0 | 0.00 | 0.00 | 0.00 | 42 | 994.5 |
| 20260503234644 | 69 | 301 | 5.0 | 10.0 | 0.00 | 0.00 | 0.00 | 42 | 994.6 |
| 20260503234142 | 69 | 267 | 9.0 | 15.0 | 0.00 | 0.00 | 0.00 | 41 | 994.7 |
| 20260503233638 | 69 | 218 | 5.0 | 13.0 | 0.00 | 0.00 | 0.00 | 42 | 994.6 |
| 20260503233134 | 69 | 356 | 2.0 | 14.0 | 0.00 | 0.00 | 0.00 | 42 | 994.8 |
| 20260503232631 | 69 | 252 | 6.0 | 11.0 | 0.00 | 0.00 | 0.00 | 42 | 994.8 |
| 20260503232128 | 68 | 293 | 9.0 | 15.0 | 0.00 | 0.00 | 0.00 | 42 | 995.1 |
| 20260503231626 | 69 | 283 | 8.0 | 11.0 | 0.00 | 0.00 | 0.00 | 41 | 995.1 |
| 20260503231122 | 69 | 298 | 11.0 | 16.0 | 0.00 | 0.00 | 0.00 | 40 | 995.1 |
| 20260503230619 | 69 | 301 | 8.0 | 14.0 | 0.00 | 0.00 | 0.00 | 39 | 994.9 |
| 20260503230117 | 69 | 216 | 4.0 | 11.0 | 0.00 | 0.00 | 0.00 | 39 | 995.0 |
| 20260503225614 | 69 | 212 | 6.0 | 16.0 | 0.00 | 0.00 | 0.00 | 38 | 995.1 |
| 20260503225113 | 70 | 241 | 7.0 | 13.0 | 0.00 | 0.00 | 0.00 | 38 | 995.1 |
| 20260503224611 | 70 | 255 | 6.0 | 15.0 | 0.00 | 0.00 | 0.00 | 37 | 994.8 |
| 20260503224109 | 70 | 313 | 7.0 | 21.0 | 0.00 | 0.00 | 0.00 | 37 | 994.9 |
| 20260503223607 | 70 | 311 | 9.0 | 16.0 | 0.00 | 0.00 | 0.00 | 36 | 995.0 |
| 20260503223102 | 70 | 270 | 5.0 | 13.0 | 0.00 | 0.00 | 0.00 | 35 | 995.0 |
| 20260503222600 | 70 | 254 | 3.0 | 9.0 | 0.00 | 0.00 | 0.00 | 34 | 995.0 |
| 20260503222058 | 70 | 247 | 3.0 | 17.0 | 0.00 | 0.00 | 0.00 | 34 | 995.3 |
| 20260503221555 | 70 | 233 | 4.0 | 14.0 | 0.00 | 0.00 | 0.00 | 35 | 995.1 |
| 20260503221053 | 69 | 329 | 3.0 | 14.0 | 0.00 | 0.00 | 0.00 | 35 | 995.5 |